Regional Weather Roundup
Issued by NWS

Home | Current Version | Previous Version | Graphics & Text | Print | Product List | Glossary On
Versions: 1 2 3 4 5 6 7 8 9 10 11 12 13 14 15 16 17 18 19 20 21 22 23 24 25 26 27 28 29 30 31 32 33 34 35 36 37 38 39 40 41 42 43 44 45 46 47 48
000
ASUS45 KBOU 220207
RWRCO

WEATHER ROUNDUP FOR COLORADO
NATIONAL WEATHER SERVICE DENVER/BOULDER CO
800 PM MDT SUN SEP 21 2014

NOTE: "FAIR" INDICATES FEW OR NO CLOUDS BELOW 12000 FEET WITH NO
SIGNIFICANT WEATHER AND/OR OBSTRUCTIONS TO VISIBILITY.

COZ001>005-013-030-031-220300-
...NORTHWEST COLORADO...

CITY           SKY/WX    TMP DP  RH WIND       PRES   REMARKS
CRAIG          CLOUDY    59  50  72 W10G21    30.32R
HAYDEN         CLOUDY    57  48  72 W8G18     30.32R
MEEKER         NOT AVBL
MOUNT WERNER   NOT AVBL
STEAMBOAT SPGS CLOUDY    54  52  92 CALM      30.32S
WALDEN         CLOUDY    54  45  71 CALM      30.42F
$$

COZ006>008-011-220300-
...WEST CENTRAL VALLEYS...

CITY           SKY/WX    TMP DP  RH WIND       PRES   REMARKS
GRAND JUNCTION CLOUDY    61  57  87 NE3       30.20S
MONTROSE       MOCLDY    65  55  70 N6        30.25R
EAGLE          PTCLDY    63  48  59 E3        30.30S
RIFLE          MOCLDY    66  54  65 NW8       30.22R
DELTA          RAIN      64  57  77 W25G38    30.19R
NUCLA          MOCLDY    64  54  68 NW3       30.26R
$$

COZ017>023-064>068-220300-
...SOUTHWEST COLORADO...

CITY           SKY/WX    TMP DP  RH WIND       PRES   REMARKS
DURANGO        CLOUDY    68  48  48 CALM      30.28R
CORTEZ         CLOUDY    71  50  47 N3        30.20R
PAGOSA SPRINGS CLOUDY    65  44  46 NE7       30.37R
TELLURIDE      NOT AVBL
WOLF CREEK PAS DRIZZLE   41  41 100 S9G16     30.66S
$$

COZ009-010-012-014-032>034-037-058>063-220300-
...CENTRAL COLORADO...

CITY           SKY/WX    TMP DP  RH WIND       PRES   REMARKS
ASPEN          MOCLDY    57  48  72 SW8       30.35R
BUENA VISTA    CLOUDY    56  51  82 SE9       30.45R
COPPER MTN     PTCLDY    46  39  76 N3        30.67S THUNDER
BERTHOUD PASS  CLOUDY    37  36  93 E16       30.72R
COTTONWOOD PAS CLOUDY    54  48  82 E5        30.55R
GUNNISON       PTCLDY    63  48  59 N7        30.36R
KREMMLING      MOCLDY    54  46  76 CALM      30.40S
LEADVILLE      MOCLDY    49  47  93 S7        30.52R
MONARCH PASS   FOG       45  43  93 E10       30.76S VSB<1/4
SALIDA         CLOUDY    58  53  85 SE8       30.50R
SUNLIGHT       MOCLDY    48  43  81 CALM      30.56S
WILKERSON PASS NOT AVBL
$$

COZ069>075-220300-
...SAN LUIS VALLEY/SANGRE DE CRISTO MOUNTAINS...

CITY           SKY/WX    TMP DP  RH WIND       PRES   REMARKS
ALAMOSA        MOCLDY    61  48  62 E14       30.36R
LA VETA PASS   NOT AVBL
SAGUACHE       NOT AVBL
$$

COZ035-036-038>040-220300-
...NORTHERN COLORADO FRONT RANGE...

CITY           SKY/WX    TMP DP  RH WIND       PRES   REMARKS
DENVER INTL AP CLOUDY    67  49  52 W6        30.31R
DMNS CITY PARK   N/A     64  54  70 SE1       30.31R
AURORA         LGT RAIN  65  51  59 CALM      30.34R
FRONT RANGE AP NOT AVBL
ERIE MUNI ARPT NOT AVBL
BOULDER MUN AP DRIZZLE   66  50  55 CALM      30.30R
CENTENNIAL     LGT RAIN  63  54  72 CALM      30.34R
BROOMFIELD     DRIZZLE   66  50  55 NW8       30.32R
FORT COLLINS   CLOUDY    66  52  59 N12       30.29R
LONGMONT       CLOUDY    66  53  62 SW5       30.31R
$$

COZ041-046-047-076>085-087-088-220300-
...PIKES PEAK/PALMER DIVIDE AND SOUTHERN FOOTHILLS...

CITY           SKY/WX    TMP DP  RH WIND       PRES   REMARKS
COLO. SPRINGS  CLOUDY    65  50  58 S12       30.39R
A. F. ACADEMY  MOCLDY    63  49  59 S13       30.39R
ELLICOTT       NOT AVBL
FALCON         CLOUDY    59  45  59 SE6       30.43R
FORT CARSON    CLOUDY    65  51  60 SE9       30.36R
LIMON          CLEAR     61  41  47 SE10      30.35R
MONUMENT HILL  PTCLDY    57  45  62 S12       30.39R
TRINIDAD       CLOUDY    61  58  90 W8        30.35R
$$

COZ042>045-048>051-090-091-220300-
...NORTHEAST COLORADO...

CITY           SKY/WX    TMP DP  RH WIND       PRES   REMARKS
GREELEY ARPT   MOCLDY    68  43  40 E16       30.26R
AKRON          MOCLDY    61  41  47 SE15      30.31R
BURLINGTON     PTCLDY    63  40  42 SE8       30.33R
WRAY           CLOUDY    65  43  44 E6        30.31R
STERLING       MOCLDY    68  45  42 SE5       30.28R
HOLYOKE        MOCLDY    66  43  42 E7        30.30R
FORT MORGAN    MOCLDY    62  42  47 E10       30.30R
$$

COZ086-089-092>099-220300-
...SOUTHEAST COLORADO...

CITY           SKY/WX    TMP DP  RH WIND       PRES   REMARKS
PUEBLO         CLOUDY    72  45  37 E9        30.29R
LA JUNTA       CLEAR     67  43  41 E9        30.28R
LAMAR          CLEAR     64  42  44 SE8       30.27R
SPRINGFIELD      N/A     63  44  50 E9        30.31R
$$


USA.gov is the U.S. government's official web portal to all federal, state and local government web resources and services.